Location: Ch�ze
(42.9000°N, 0.0333°W)
Time: 19:30:05
(UTC+00:00)

Cosmos-2242 - Pass Details

Date: 24 January 2021
Orbit: 592 x 616 km, 82.5° (Epoch: 07 March)

Event Time Altitude Azimuth Distance (km) Brightness Sun altitude
Rises 19:28:45 0° 346° (NNW) 2,847 6.6 -26.6°
Reaches altitude 10° 19:31:01 10° 341° (NNW) 1,943 5.8 -27.0°
Maximum altitude 19:35:09 48° 267° (W) 785 3.9 -27.8°
Enters shadow 19:36:33 34° 216° (SW) 991 4.3 -28.1°
Exits shadow 19:39:43 - 191° (S) 2,117 5.9 -28.6°
Sets 19:41:32 0° 187° (S) 2,844 6.5 -29.0°
